This demonstration page uses our WeatherBlox Daily Observations layout. Learn more.

Left ArrowRight Arrow

36.17497, -115.13722

Hourly Observations for August 3, 2020

Temp ( °F °C ) Dew Point ( °F °C ) Humidity (%) Winds ( mph kmh ) Pressure ( in mb ) Visibility ( mi km ) Precip ( " mm )
12:53 am 00:53 Clear 88 31.1 23 -5 9 9 NNW 8 13 29.80 1009 10 16 N/A
1:53 am 01:53 Clear 86 30 27 -2.8 12 12 WNW 6 9 29.80 1009 10 16 N/A
2:53 am 02:53 Clear 84 28.9 30 -1.1 14 14 NW 5 7 29.82 1010 10 16 N/A
3:53 am 03:53 Clear 82 27.8 23 -5 11 11 NW 7 11 29.83 1010 10 16 N/A
4:53 am 04:53 Clear 81 27.2 22 -5.6 11 11 NNE 5 7 29.84 1011 10 16 N/A
5:53 am 05:53 Sunny 78 25.6 22 -5.6 12 12 NW 7 11 29.86 1011 10 16 N/A
6:53 am 06:53 Sunny 79 26.1 23 -5 12 12 NNW 8 13 29.88 1012 10 16 N/A
7:53 am 07:53 Sunny 85 29.4 25 -3.9 11 11 NNW 3 6 29.89 1012 10 16 N/A
8:53 am 08:53 Sunny 90 32.2 22 -5.6 8 8 NE 6 9 29.90 1013 10 16 N/A
9:53 am 09:53 Sunny 93 33.9 24 -4.4 8 8 E 6 9 29.90 1013 10 16 N/A
10:53 am 10:53 Sunny 97 36.1 20 -6.7 6 6 ESE 6 9 29.90 1013 10 16 N/A
11:53 am 11:53 Sunny 100 37.8 25 -3.9 7 7 SE 5 7 29.89 1012 10 16 N/A
12:53 pm 12:53 Sunny 104 40 24 -4.4 6 6 ESE 10 17 29.87 1012 10 16 N/A
1:53 pm 13:53 Sunny 107 41.7 24 -4.4 5 5 S 8 13 29.84 1010 10 16 N/A
2:53 pm 14:53 Sunny 109 42.8 20 -6.7 4 4 S 14 22 29.80 1009 10 16 N/A
3:53 pm 15:53 Sunny 109 42.8 20 -6.7 4 4 S 8 13 29.79 1009 10 16 N/A
4:53 pm 16:53 Sunny 109 42.8 23 -5 5 5 VRB 5 7 29.77 1008 10 16 N/A
5:53 pm 17:53 Sunny 108 42.2 22 -5.6 5 5 ESE 7 11 29.75 1008 10 16 N/A
6:53 pm 18:53 Sunny 107 41.7 22 -5.6 5 5 ESE 14 22 29.75 1007 10 16 N/A
7:53 pm 19:53 Clear 104 40 24 -4.4 6 6 ESE 10 17 29.74 1007 10 16 N/A
8:53 pm 20:53 Clear 101 38.3 23 -5 6 6 SSW 7 11 29.76 1008 10 16 N/A
9:53 pm 21:53 Clear 98 36.7 23 -5 7 7 S 7 11 29.78 1008 10 16 N/A
10:53 pm 22:53 Clear 93 33.9 24 -4.4 8 8 SE 3 6 29.79 1009 10 16 N/A
11:53 pm 23:53 Clear 94 34.4 20 -6.7 7 7 SW 3 6 29.78 1009 10 16 N/A

Powered by AerisWeather